Temperature
23 23 22 21 20 20 21 24 26 26 26 26 26 25 24 23 23 21 21 21 22 21 21 20 20 20 20 20 20 20 20 20 19 19 19 19 19 19 19 19 19 19 19 18 18 18 18 18 18
23 23 22 21 20 21 22 25 26 27 26 26 25 25 24 22 22 21 21 21 22 21 21 20 20 20 20 20 20 20 20 19 19 19 19 19 19 19 19 19 19 19 19 19 18 18 18 18 18
23 23 22 20 21 22 24 26 27 27 27 26 25 24 24 22 21 21 22 22 21 21 21 21 20 20 20 20 19 19 19 19 19 19 19 19 19 19 19 19 19 19 19 19 18 18 18 18 18
23 22 22 20 22 24 26 27 27 27 26 25 24 23 23 23 22 22 22 22 21 21 21 21 20 20 20 20 19 19 19 19 19 19 19 19 19 19 19 19 19 19 19 19 19 18 18 18 18
23 22 21 21 23 26 27 28 28 26 25 25 24 22 22 22 22 22 22 22 21 21 21 20 20 20 20 20 20 19 19 19 19 19 19 19 19 19 19 19 19 19 19 19 19 18 18 18 17
23 21 21 21 24 27 27 28 27 26 24 24 23 21 21 21 21 21 21 21 21 21 20 20 20 20 20 20 20 20 19 19 19 19 19 19 19 19 19 19 19 19 19 19 19 18 18 18 17
23 21 22 23 25 26 28 28 27 26 25 24 23 21 20 20 21 21 21 21 21 21 20 20 20 20 20 20 20 19 19 19 19 19 19 19 19 19 19 19 19 19 19 19 19 18 18 18 18
25 21 22 23 25 26 28 28 27 26 25 24 23 21 20 20 20 20 20 20 20 20 20 20 20 20 19 19 19 19 19 19 19 19 19 19 19 19 19 19 19 19 19 19 18 18 18 18 18
25 21 21 23 25 26 27 27 26 25 24 23 23 23 22 21 20 20 19 20 20 19 19 19 19 19 19 19 19 19 19 19 19 19 19 19 19 19 19 19 19 19 19 18 18 18 18 18 18
25 21 22 25 26 26 27 26 26 24 23 22 22 22 21 21 20 20 19 19 19 19 19 19 19 19 19 19 19 19 19 19 19 19 18 18 18 18 18 18 18 18 18 18 18 18 18 18 18
24 23 25 26 28 27 27 26 26 24 22 22 22 21 21 20 20 20 20 20 20 19 19 19 19 19 19 19 19 19 19 19 18 18 18 18 18 18 18 18 18 18 18 18 18 18 18 18 18
25 26 27 27 28 28 27 27 26 25 24 24 24 23 21 20 20 20 20 20 20 19 19 19 19 19 19 19 19 19 19 18 18 18 18 18 18 18 18 18 18 18 18 18 18 18 18 18 18
26 26 27 28 28 28 27 26 25 24 24 23 23 22 21 21 20 20 20 19 19 19 19 19 19 19 19 19 19 19 18 18 18 18 18 18 18 18 18 18 18 18 18 18 18 18 18 18 18
26 26 27 28 28 28 26 26 25 24 23 22 22 21 21 21 20 19 19 19 19 19 19 19 19 19 19 19 19 18 18 18 18 18 18 18 18 18 17 17 17 18 18 17 17 17 17 17 17
27 25 25 26 27 27 26 25 24 24 23 22 21 21 21 21 20 20 19 19 19 19 19 19 19 19 19 18 18 18 18 18 18 18 18 17 17 17 17 17 17 17 17 17 17 17 17 17 17
25 24 24 25 26 27 26 24 24 24 23 22 21 21 20 20 20 20 19 19 19 19 19 19 18 18 18 18 18 18 18 18 18 18 18 17 17 17 17 17 17 17 17 17 17 17 17 17 17
23 23 23 25 26 26 25 23 24 24 23 22 21 20 20 20 20 20 19 19 19 19 19 18 18 18 18 18 18 18 18 18 18 18 17 17 17 17 17 17 17 17 17 17 17 17 17 17 17
22 23 24 25 26 26 24 23 23 23 22 21 21 20 20 19 19 19 19 19 19 19 18 18 18 18 18 18 18 18 18 18 18 17 17 17 17 17 17 17 17 17 17 16 16 17 17 17 17
24 24 24 25 26 26 24 23 23 22 22 21 20 20 19 19 19 19 19 19 18 18 18 18 18 18 18 18 18 18 18 18 17 17 17 17 17 17 17 16 16 16 16 16 16 16 16 16 16
25 24 24 25 26 25 24 23 22 22 21 21 20 19 19 19 18 18 18 18 18 18 18 18 18 18 18 18 18 18 18 17 17 17 17 17 16 16 16 16 16 16 16 16 16 16 16 16 16
25 25 25 25 25 25 24 22 21 21 21 21 20 20 19 19 18 18 18 18 18 18 18 18 18 17 17 17 17 17 17 17 17 16 16 16 16 16 16 16 16 16 16 16 16 16 16 16 16
25 26 26 26 24 22 23 21 21 21 20 20 20 19 19 19 18 18 18 18 18 18 18 18 18 17 17 17 17 17 17 17 17 17 16 16 16 16 16 16 16 16 16 15 15 15 15 16 16
26 26 26 25 23 21 21 21 20 20 20 20 19 19 19 19 18 18 18 18 18 18 18 18 17 17 17 17 17 17 17 17 17 17 16 16 16 16 16 16 15 15 15 15 15 15 15 15 15
27 25 23 20 19 20 20 20 20 19 20 20 20 20 19 19 19 18 18 18 18 18 17 17 17 17 17 17 17 17 17 17 17 16 16 16 16 16 15 15 15 15 15 15 15 15 15 15 15
25 23 21 21 19 20 20 20 20 20 21 20 20 20 19 19 19 18 18 18 18 17 17 17 17 17 17 17 17 17 17 17 17 17 16 16 16 15 15 15 15 15 15 15 15 15 15 15 15
24 22 21 21 20 19 20 20 20 21 21 21 21 20 19 19 19 19 19 18 18 18 17 17 17 17 17 17 17 17 17 17 17 16 16 16 16 16 16 15 15 15 15 15 15 15 15 15 15
24 22 21 20 20 19 19 20 20 21 20 20 20 20 19 19 19 19 19 19 18 18 18 17 17 17 17 17 17 17 17 17 16 16 16 16 16 16 15 15 15 15 15 15 15 15 15 15 14
24 23 20 19 20 20 20 20 19 20 20 20 19 20 20 19 19 19 19 19 19 18 18 18 18 17 17 17 17 17 17 17 16 16 16 16 16 16 15 15 15 15 15 15 15 15 14 14 14
23 22 20 18 19 19 19 19 21 20 20 20 19 20 20 20 19 19 19 19 19 19 18 18 18 17 17 17 17 17 17 17 16 16 16 16 16 16 15 15 15 15 15 15 15 15 14 14 14
22 21 20 19 19 18 18 20 22 20 20 20 20 21 21 20 20 20 20 19 19 19 18 18 18 18 18 17 17 17 17 17 16 16 16 16 16 16 15 15 15 15 15 15 15 15 15 14 14
Wind_Speed
7 6 3 1 3 3 3 4 4 3 2 3 8 10 10 6 4 4 6 16 20 20 21 24 25 24 23 22 22 21 21 20 20 20 19 19 19 18 18 17 17 17 16 16 16 16 15 15 15
4 4 2 2 3 1 5 4 3 3 7 8 9 10 9 6 6 9 9 17 21 20 21 23 26 25 24 23 22 21 20 20 19 19 19 18 18 18 18 17 17 16 16 16 15 15 14 14 14
3 4 2 2 2 4 4 3 3 5 8 7 6 5 6 6 7 7 11 19 19 16 20 24 27 25 24 23 22 21 20 20 19 18 18 18 17 17 17 17 16 16 16 15 14 14 13 13 12
1 2 1 1 7 7 5 5 4 6 6 8 8 6 4 3 6 12 20 20 19 15 19 24 26 25 24 23 22 21 20 19 19 18 18 17 17 17 17 16 16 15 15 14 13 12 12 12 11
2 3 2 3 7 5 4 3 7 7 5 7 9 7 3 4 14 21 21 22 20 15 17 23 26 25 24 23 22 21 20 19 19 18 17 17 16 16 16 16 15 15 14 13 12 11 10 10 11
2 3 1 5 7 5 4 3 8 10 10 8 9 8 3 7 15 18 19 18 18 17 15 21 25 25 24 23 22 21 20 19 19 18 17 16 16 16 16 15 15 14 13 12 10 9 9 9 9
3 1 3 5 7 5 2 2 7 9 8 5 7 7 5 7 12 15 16 16 16 15 14 14 20 22 23 23 22 21 20 19 18 17 17 16 15 15 15 15 14 13 12 10 9 7 7 7 7
5 2 4 4 4 4 1 2 6 8 7 6 6 9 7 7 12 15 14 14 14 13 12 11 14 17 18 19 21 21 20 19 18 17 16 16 15 15 15 14 13 12 11 9 7 6 5 4 5
2 1 5 5 3 3 2 2 3 5 8 5 3 6 10 15 17 17 15 13 12 12 10 10 10 12 15 16 19 19 19 18 18 16 16 15 13 13 13 12 12 11 10 8 6 4 3 2 3
5 4 8 6 5 2 2 1 4 5 7 4 5 9 14 16 18 19 20 18 16 15 12 11 11 11 13 14 14 14 14 14 14 13 13 12 11 11 11 12 12 11 9 7 5 3 1 2 3
6 8 8 8 6 3 1 1 3 9 4 7 13 16 16 16 16 16 17 18 18 16 14 12 11 10 10 8 11 10 10 11 11 12 12 11 10 9 10 9 9 8 8 5 4 3 2 2 2
5 9 8 7 5 2 2 2 3 3 6 11 16 18 17 17 17 16 17 17 16 16 15 13 12 10 9 9 8 8 7 8 8 10 12 10 6 6 7 6 7 6 6 4 4 3 2 2 2
6 9 10 8 4 2 2 3 4 3 9 13 15 15 15 16 15 13 14 15 15 15 14 13 12 12 10 8 7 8 6 7 9 10 11 11 7 5 5 5 6 6 5 5 3 3 2 2 2
5 6 8 6 4 2 3 2 5 5 11 14 15 13 14 16 15 14 14 13 14 15 15 13 13 12 10 9 7 7 8 8 9 9 11 12 10 7 5 4 4 5 6 6 5 4 2 1 2
4 5 8 6 3 2 3 2 3 8 11 12 13 12 12 12 14 16 16 15 15 15 13 12 12 11 11 10 8 7 8 9 7 8 11 11 10 9 7 4 3 4 5 6 4 3 3 2 1
6 5 5 8 3 3 4 5 5 8 12 11 11 11 10 9 12 13 14 13 14 14 12 11 11 10 10 9 8 7 8 8 7 9 10 10 10 10 7 4 3 4 5 5 3 3 3 2 2
4 3 7 8 4 3 4 5 6 8 13 12 11 11 11 10 10 11 13 13 12 13 13 11 9 10 10 9 8 7 7 7 8 9 9 9 10 10 8 4 3 6 4 3 3 3 2 2 1
7 6 8 8 5 3 3 5 6 8 12 12 11 11 11 12 10 10 11 11 11 11 10 11 10 9 9 8 8 6 6 5 7 7 8 9 9 10 8 5 4 5 4 3 3 3 2 1 1
9 10 12 11 7 3 4 5 7 9 10 11 10 10 10 10 9 9 10 12 11 11 10 10 10 8 8 8 8 7 6 6 5 5 8 9 9 10 8 4 4 4 4 3 3 3 3 1 1
11 11 12 9 5 3 3 4 6 8 11 14 15 14 12 10 10 10 10 11 11 12 11 10 10 9 9 7 6 5 6 5 5 4 6 9 10 10 8 6 4 4 4 4 3 3 2 1 2
12 10 9 7 4 2 3 2 2 3 4 9 12 14 14 15 15 13 12 11 12 12 13 12 10 9 8 8 7 7 5 5 3 4 4 5 9 9 9 8 5 4 4 4 3 4 4 2 2
11 11 8 4 0 2 2 2 6 5 5 9 10 12 13 14 15 14 13 12 12 12 11 11 11 10 9 9 10 11 8 6 5 5 4 4 7 8 9 8 7 5 4 4 3 3 3 4 2
10 8 2 2 2 2 4 0 6 2 5 9 11 13 13 14 16 15 14 14 13 12 11 11 10 9 8 9 10 10 7 6 5 5 6 5 4 6 8 8 6 5 4 4 4 5 4 3 3
7 2 4 5 5 1 3 2 6 5 8 10 11 13 13 14 15 14 13 12 11 11 11 11 11 9 9 9 9 9 10 9 9 8 7 5 4 4 6 7 6 5 4 5 5 5 6 4 4
2 3 3 5 4 4 4 3 8 6 7 10 13 14 14 14 14 14 14 14 12 13 13 12 12 11 10 10 9 9 10 11 11 9 8 7 4 4 5 5 5 4 4 5 5 5 5 4 4
5 7 7 6 5 4 3 5 7 7 4 7 11 13 14 15 14 16 16 15 15 15 14 13 12 10 10 10 9 9 10 8 7 8 7 7 5 5 6 6 6 6 6 6 5 4 3 4 4
3 3 8 7 3 2 4 5 8 4 1 4 9 12 14 15 16 16 15 15 14 15 14 14 13 11 11 10 10 9 9 9 8 8 7 6 6 6 7 7 7 6 6 6 5 4 3 4 3
4 4 5 5 4 3 4 4 5 5 4 5 8 12 14 15 15 15 15 15 15 14 13 13 13 12 10 10 10 10 9 9 9 8 8 8 8 7 8 8 7 7 6 6 5 4 3 4 3
2 2 3 4 5 5 4 7 7 10 8 9 10 11 14 16 17 17 16 15 15 14 14 13 13 11 11 11 9 9 9 8 9 8 9 9 8 9 9 9 8 7 7 6 5 4 4 5 3
4 4 5 3 3 4 4 7 6 7 7 8 8 10 13 16 17 17 16 15 14 15 15 15 14 13 12 11 10 10 9 9 9 9 9 9 10 9 9 9 8 8 7 7 7 6 5 5 5
Wind_Direction
194 192 184 74 46 33 277 249 193 193 126 84 100 105 102 92 129 145 136 142 141 146 149 147 143 139 135 132 128 125 122 119 116 114 113 111 110 110 110 109 108 107 105 102 101 100 99 99 100
186 194 159 64 88 330 270 236 215 182 141 115 88 93 88 72 84 110 124 141 142 145 147 147 145 141 139 136 133 130 127 124 121 119 117 115 114 113 112 112 111 109 107 105 103 101 99 97 96
224 201 146 113 193 207 244 231 181 118 121 116 94 70 90 116 117 125 139 140 141 144 146 149 146 144 142 140 137 134 132 129 127 124 122 120 119 118 116 115 113 112 110 107 104 101 98 95 92
181 75 54 121 252 244 234 253 168 120 86 86 107 83 73 106 135 137 139 140 140 143 147 150 148 146 144 143 141 138 136 134 132 130 127 125 124 123 121 119 117 115 113 110 106 101 96 91 86
110 93 34 287 265 270 285 225 142 116 108 107 108 105 71 35 116 133 141 144 143 144 148 150 149 148 147 146 144 142 141 139 137 135 133 131 129 128 126 123 121 120 118 114 110 104 96 88 82
36 79 75 273 274 289 312 121 112 103 113 118 111 112 92 111 124 138 141 143 144 145 146 151 151 150 149 149 148 146 145 144 141 140 138 136 135 133 131 130 127 125 123 121 116 109 100 90 81
151 132 234 255 286 303 306 109 107 120 120 129 124 113 124 129 135 135 138 139 141 144 145 149 152 151 152 151 150 150 149 147 145 144 142 141 140 139 137 136 134 132 131 129 124 115 105 93 79
173 116 282 279 276 280 289 97 115 118 119 126 123 131 152 151 133 130 133 135 137 142 145 147 148 149 150 152 153 153 153 151 150 149 148 146 145 144 143 142 142 141 140 139 136 126 112 92 74
173 92 260 254 238 263 326 63 62 79 110 107 120 141 147 140 137 136 136 135 140 147 149 147 147 147 148 152 156 156 157 157 155 155 155 151 149 149 151 153 152 150 150 149 149 145 128 91 65
152 191 238 231 207 217 291 125 139 110 102 106 105 118 136 140 142 145 149 151 153 157 158 157 153 152 153 157 154 157 158 160 158 159 157 154 156 161 162 164 162 159 158 157 159 156 109 76 57
186 212 240 257 248 212 199 111 123 130 141 168 156 151 150 147 146 150 155 158 158 158 162 161 160 161 163 153 156 159 159 160 159 160 159 159 159 165 162 164 165 163 162 158 157 144 111 103 82
242 258 254 257 258 214 176 140 102 147 175 168 158 154 155 158 161 160 159 158 157 158 163 162 164 163 164 154 160 161 160 165 167 170 166 158 153 154 159 165 166 163 161 158 150 140 140 115 104
248 261 271 265 251 213 143 142 129 143 143 148 150 154 159 163 160 158 159 157 158 158 160 163 166 167 162 158 164 160 163 171 170 168 167 160 154 155 157 162 166 168 167 161 154 143 134 120 119
259 280 280 276 266 240 135 141 120 164 150 150 154 162 166 163 157 155 159 160 161 161 162 166 169 169 162 162 163 159 163 163 157 157 161 158 155 153 153 153 158 161 166 164 158 153 140 130 127
297 320 311 289 272 231 114 2 177 170 155 154 160 166 165 162 160 163 164 162 162 161 165 166 167 166 161 161 162 157 156 152 151 151 152 151 151 150 149 142 143 159 156 145 133 122 109 98 81
346 345 304 292 281 241 140 237 218 171 149 151 154 156 160 164 163 163 160 159 162 160 165 167 164 163 161 156 152 148 149 145 144 142 145 147 147 144 138 132 140 151 139 130 121 109 96 83 76
341 289 275 291 267 230 164 213 206 170 150 154 154 149 153 151 152 157 159 160 162 160 164 165 159 164 155 145 142 140 138 135 137 137 138 140 142 143 136 134 139 135 122 118 129 108 116 108 96
257 265 275 273 272 262 210 208 181 168 160 161 156 149 153 156 160 161 154 152 153 152 157 158 156 156 140 131 128 127 125 130 132 134 138 138 139 139 132 126 123 125 110 104 106 103 91 113 159
253 273 277 273 271 256 216 189 175 171 166 160 154 154 157 156 157 153 151 151 149 149 154 153 149 150 140 139 141 141 143 141 136 140 141 138 136 135 128 119 115 117 115 120 118 101 82 53 73
261 270 270 275 265 220 191 187 181 176 178 173 166 164 160 152 154 156 154 155 156 160 163 156 155 157 152 151 147 143 139 139 140 136 135 139 137 136 132 124 126 120 111 99 94 94 98 43 74
264 254 250 254 288 35 91 354 223 209 169 175 170 165 163 164 163 164 163 159 158 163 166 166 164 158 154 149 133 127 113 106 111 127 136 143 139 134 130 128 126 120 119 117 114 112 115 95 34
263 258 242 235 71 317 78 257 257 209 185 181 173 166 169 168 165 166 167 164 166 167 163 159 161 160 161 153 147 151 152 152 166 157 150 145 141 136 134 132 128 122 120 122 121 110 113 111 75
249 252 232 189 132 37 8 119 278 181 201 203 188 179 174 172 170 172 171 170 169 165 163 159 156 161 164 159 156 155 152 152 148 142 141 143 138 138 137 133 128 124 124 124 115 102 98 104 113
247 286 24 46 73 34 270 194 270 216 214 200 193 187 178 176 175 172 168 163 164 163 162 160 158 164 166 160 158 156 154 151 150 152 154 152 142 135 138 134 130 129 126 126 124 115 108 104 103
273 103 16 348 1 252 249 216 247 237 227 198 189 187 179 177 174 169 167 167 169 168 167 165 163 166 166 161 160 160 157 157 162 164 163 157 153 153 160 141 138 136 138 133 124 116 114 116 114
252 155 169 209 226 258 285 242 259 269 246 193 181 180 175 175 176 174 173 173 174 172 169 168 170 168 167 165 165 161 156 158 165 168 164 165 166 167 161 149 148 147 142 134 124 120 126 123 121
240 220 180 156 179 199 261 276 296 291 72 141 165 172 177 178 178 176 174 174 174 173 173 175 173 171 170 168 164 163 161 161 166 167 162 165 165 165 156 151 150 148 141 138 133 127 135 131 128
169 167 94 122 169 226 260 253 245 248 207 167 170 181 183 180 179 176 176 176 176 175 174 174 175 175 172 169 171 172 166 165 165 163 165 166 165 158 154 153 152 150 146 145 138 137 147 140 150
351 72 112 133 158 167 225 260 229 212 199 183 190 188 183 182 182 180 180 179 176 173 174 176 177 174 174 174 173 165 166 165 162 164 167 164 162 158 158 160 158 158 159 155 154 167 166 166 179
174 174 146 150 242 177 187 260 265 200 182 182 199 196 188 185 182 181 179 176 175 176 177 179 179 179 180 176 170 168 166 162 162 165 166 161 161 164 164 162 164 170 172 171 173 184 182 182 192
Height
1507 1507 1508 1508 1510 1516 1516 1501 1492 1490 1491 1490 1488 1491 1495 1499 1505 1512 1508 1510 1514 1518 1522 1525 1528 1530 1532 1534 1535 1537 1538 1539 1541 1541 1542 1543 1544 1545 1546 1547 1548 1549 1549 1550 1551 1552 1552 1553 1554
1506 1507 1509 1509 1514 1524 1514 1495 1490 1487 1489 1488 1490 1492 1494 1499 1502 1504 1506 1511 1515 1518 1521 1525 1528 1530 1532 1534 1536 1538 1539 1541 1542 1543 1544 1545 1546 1547 1548 1548 1549 1550 1551 1552 1553 1554 1554 1555 1556
1506 1507 1508 1509 1514 1517 1506 1489 1486 1485 1487 1487 1491 1493 1496 1500 1502 1504 1507 1511 1515 1518 1522 1525 1528 1531 1533 1535 1537 1539 1540 1542 1543 1544 1545 1546 1547 1548 1549 1550 1551 1552 1553 1554 1555 1555 1556 1557 1558
1505 1507 1507 1512 1511 1499 1492 1486 1484 1484 1487 1487 1489 1495 1498 1501 1501 1503 1507 1512 1515 1519 1522 1525 1528 1531 1533 1535 1537 1539 1541 1542 1543 1545 1546 1547 1548 1549 1550 1551 1552 1553 1554 1555 1556 1557 1558 1559 1560
1505 1505 1510 1513 1504 1490 1484 1482 1481 1482 1486 1488 1489 1496 1500 1502 1503 1505 1507 1511 1514 1518 1522 1525 1528 1531 1533 1535 1538 1540 1541 1543 1544 1545 1547 1548 1549 1550 1551 1552 1554 1555 1556 1557 1558 1559 1561 1562 1562
1504 1505 1515 1516 1500 1487 1483 1481 1480 1483 1486 1488 1490 1495 1502 1503 1504 1506 1509 1512 1515 1518 1522 1526 1528 1531 1533 1535 1538 1540 1541 1543 1544 1546 1547 1549 1550 1551 1553 1554 1555 1556 1557 1559 1560 1561 1562 1563 1564
1504 1506 1511 1506 1497 1489 1482 1480 1480 1483 1485 1488 1489 1496 1502 1504 1505 1507 1509 1512 1516 1518 1522 1526 1529 1531 1533 1536 1538 1540 1542 1543 1545 1546 1548 1549 1551 1552 1553 1555 1556 1557 1559 1560 1561 1562 1564 1565 1566
1501 1504 1506 1503 1496 1490 1481 1480 1481 1482 1484 1487 1488 1493 1500 1504 1505 1506 1510 1513 1516 1519 1522 1526 1529 1531 1533 1535 1538 1540 1542 1544 1545 1547 1548 1550 1551 1553 1554 1556 1557 1558 1560 1561 1562 1564 1565 1566 1567
1499 1507 1510 1501 1493 1488 1481 1480 1483 1483 1484 1487 1488 1489 1494 1499 1503 1506 1509 1513 1515 1518 1522 1525 1528 1531 1533 1536 1538 1540 1542 1544 1546 1547 1549 1550 1552 1553 1555 1556 1558 1559 1560 1562 1563 1564 1565 1567 1567
1496 1507 1499 1488 1484 1483 1481 1480 1482 1485 1486 1487 1488 1490 1494 1497 1500 1503 1506 1509 1512 1516 1520 1524 1528 1530 1533 1535 1537 1540 1542 1544 1545 1547 1548 1550 1552 1553 1555 1556 1558 1559 1561 1562 1564 1565 1566 1567 1568
1491 1493 1485 1481 1479 1479 1480 1480 1480 1483 1486 1485 1485 1489 1493 1496 1499 1502 1504 1507 1510 1514 1518 1523 1526 1529 1532 1534 1536 1539 1541 1543 1545 1547 1548 1550 1551 1553 1555 1557 1558 1560 1561 1562 1564 1565 1566 1567 1568
1488 1483 1481 1478 1476 1476 1477 1478 1479 1479 1481 1482 1483 1486 1490 1493 1496 1499 1501 1504 1509 1513 1517 1521 1525 1528 1531 1533 1536 1538 1540 1542 1544 1546 1548 1549 1551 1553 1555 1556 1558 1559 1561 1562 1564 1565 1566 1567 1568
1484 1481 1478 1476 1475 1474 1474 1476 1477 1479 1480 1482 1484 1486 1489 1492 1495 1498 1502 1504 1507 1511 1515 1519 1523 1527 1530 1532 1535 1537 1539 1541 1543 1545 1547 1549 1551 1552 1554 1556 1558 1559 1561 1562 1563 1565 1566 1567 1568
1481 1478 1476 1474 1472 1472 1474 1476 1477 1480 1480 1482 1484 1485 1488 1490 1493 1497 1501 1503 1506 1509 1513 1518 1522 1525 1528 1531 1533 1536 1538 1541 1543 1545 1547 1548 1550 1552 1554 1555 1557 1558 1560 1561 1563 1564 1565 1566 1567
1479 1479 1476 1471 1470 1471 1474 1479 1477 1477 1479 1481 1483 1484 1486 1489 1492 1494 1497 1500 1503 1507 1512 1516 1519 1523 1526 1529 1531 1534 1537 1540 1542 1544 1546 1548 1550 1551 1553 1555 1556 1558 1559 1560 1562 1563 1564 1565 1566
1479 1483 1487 1473 1469 1468 1476 1485 1476 1476 1477 1480 1482 1484 1486 1487 1490 1493 1496 1498 1502 1505 1510 1514 1517 1521 1524 1527 1529 1532 1535 1538 1541 1543 1545 1547 1549 1550 1552 1554 1555 1556 1558 1559 1560 1562 1563 1564 1565
1489 1495 1489 1477 1467 1467 1472 1480 1474 1475 1476 1477 1480 1483 1485 1487 1489 1491 1494 1498 1500 1503 1507 1511 1515 1519 1522 1525 1528 1531 1534 1537 1540 1542 1544 1546 1547 1549 1551 1552 1554 1555 1557 1558 1559 1560 1562 1563 1564
1497 1493 1487 1480 1468 1467 1472 1475 1472 1474 1475 1476 1478 1481 1484 1486 1488 1491 1493 1496 1500 1503 1506 1510 1513 1518 1521 1524 1527 1530 1533 1536 1538 1541 1543 1544 1546 1548 1550 1552 1553 1554 1556 1557 1558 1559 1560 1562 1563
1483 1485 1485 1474 1464 1467 1471 1473 1472 1473 1475 1477 1478 1480 1483 1485 1488 1491 1492 1495 1498 1502 1506 1509 1512 1516 1519 1522 1525 1528 1531 1534 1537 1540 1542 1544 1545 1547 1549 1550 1552 1553 1555 1556 1557 1558 1559 1561 1562
1478 1483 1480 1471 1463 1466 1472 1474 1471 1471 1472 1474 1475 1479 1482 1485 1488 1490 1492 1495 1498 1501 1504 1508 1512 1515 1518 1522 1524 1528 1531 1533 1536 1539 1541 1543 1545 1546 1548 1550 1551 1553 1553 1554 1556 1557 1558 1560 1561
1474 1477 1473 1472 1466 1466 1473 1481 1477 1473 1473 1474 1475 1476 1479 1482 1485 1488 1491 1494 1497 1500 1503 1506 1510 1514 1518 1521 1524 1527 1530 1533 1535 1538 1540 1542 1544 1546 1548 1549 1551 1552 1553 1554 1555 1556 1558 1559 1560
1475 1462 1462 1465 1475 1484 1479 1497 1482 1474 1474 1474 1475 1476 1478 1481 1483 1486 1490 1493 1496 1499 1502 1505 1509 1512 1517 1520 1522 1525 1527 1530 1534 1536 1539 1541 1543 1545 1547 1548 1550 1551 1552 1553 1555 1556 1557 1559 1559
1463 1456 1459 1464 1474 1485 1485 1493 1487 1476 1478 1474 1473 1474 1476 1479 1481 1485 1488 1491 1495 1498 1502 1505 1508 1512 1515 1518 1521 1524 1527 1530 1533 1536 1538 1541 1543 1544 1546 1548 1549 1550 1552 1553 1554 1555 1557 1558 1559
1452 1458 1465 1474 1484 1499 1490 1493 1490 1478 1472 1470 1470 1472 1474 1477 1480 1483 1487 1490 1494 1497 1500 1503 1507 1510 1513 1516 1520 1523 1526 1529 1532 1534 1537 1539 1542 1543 1545 1547 1548 1550 1551 1552 1553 1555 1556 1557 1558
1453 1471 1493 1498 1506 1502 1487 1488 1483 1465 1461 1461 1464 1467 1471 1475 1478 1481 1485 1488 1492 1495 1498 1502 1505 1508 1512 1515 1519 1522 1525 1528 1530 1533 1536 1538 1540 1542 1544 1546 1548 1549 1550 1552 1553 1554 1555 1556 1557
1454 1467 1492 1504 1507 1500 1488 1488 1472 1458 1455 1455 1458 1463 1468 1472 1476 1479 1482 1486 1489 1493 1496 1500 1503 1507 1510 1514 1517 1521 1524 1527 1530 1532 1535 1537 1539 1541 1543 1545 1547 1548 1550 1551 1552 1553 1554 1555 1556
1455 1462 1464 1483 1490 1498 1493 1481 1466 1454 1453 1454 1457 1462 1466 1469 1473 1476 1480 1484 1488 1491 1495 1498 1502 1506 1509 1512 1516 1519 1522 1525 1528 1531 1533 1536 1538 1540 1542 1544 1546 1547 1548 1550 1551 1552 1553 1554 1555
1447 1453 1469 1483 1497 1501 1493 1486 1477 1461 1456 1455 1457 1459 1462 1467 1471 1474 1478 1482 1486 1489 1494 1498 1501 1504 1508 1511 1514 1517 1520 1524 1527 1529 1532 1534 1537 1539 1541 1543 1545 1546 1547 1548 1550 1551 1552 1553 1554
1452 1457 1466 1478 1483 1496 1501 1487 1454 1453 1452 1453 1454 1456 1459 1464 1468 1471 1475 1479 1484 1488 1492 1496 1500 1503 1506 1510 1513 1516 1519 1522 1525 1528 1530 1533 1535 1538 1540 1542 1543 1544 1546 1547 1548 1549 1550 1551 1552
1447 1454 1464 1479 1483 1483 1490 1479 1444 1445 1447 1451 1453 1455 1457 1460 1464 1468 1472 1477 1481 1485 1489 1493 1497 1501 1504 1508 1511 1514 1517 1520 1523 1526 1528 1531 1533 1536 1538 1540 1541 1543 1544 1545 1547 1548 1549 1550 1551